Wind_Speed
3 4 4 4 3 4 4 4 3 3 3 3 2 1 1 1 2 2 2 3 3 3 3 3 4 4 4 4 4 5 5 5 5 5 5 5 6 6 5 5 6 6 5 6 6 7 8 8 8
3 3 3 4 4 4 4 3 3 3 3 3 2 2 1 1 1 2 2 3 3 3 4 4 4 4 4 4 5 5 5 5 4 4 4 5 6 6 6 5 5 6 6 6 7 7 8 8 8
3 3 3 3 3 3 3 2 3 3 3 3 2 1 1 1 2 2 2 2 3 3 4 4 4 5 5 5 5 5 4 5 4 4 4 5 5 6 6 5 5 6 6 6 7 7 7 8 9
2 2 3 3 3 2 2 2 2 2 3 3 2 1 1 2 2 2 2 2 2 3 3 3 4 4 4 4 3 4 4 4 4 4 4 4 4 5 6 6 6 6 6 7 7 7 7 8 9
2 2 3 2 2 2 2 1 1 1 2 2 2 2 2 1 1 2 3 2 2 2 2 3 3 3 3 2 2 3 3 3 2 3 3 4 4 5 6 6 7 7 7 7 7 7 8 9 9
3 2 2 2 2 2 1 1 1 1 2 2 2 2 2 1 1 2 2 3 3 3 2 3 3 3 2 2 2 2 2 2 2 2 3 4 4 5 6 6 6 7 7 7 7 7 9 9 10
4 3 3 3 3 2 2 1 1 1 1 2 2 2 2 2 2 2 3 3 3 3 2 2 2 2 2 2 2 2 2 2 3 3 4 4 4 5 6 6 6 6 7 7 8 8 9 9 9
4 4 3 3 3 3 2 2 2 2 1 1 2 2 3 3 3 3 3 3 3 2 2 2 2 2 2 2 3 2 2 2 3 4 4 4 4 4 5 6 6 6 6 7 7 8 8 8 8
5 4 4 3 3 3 3 2 2 3 2 2 2 3 3 3 3 3 3 3 3 3 3 2 2 2 3 3 3 2 2 2 3 3 4 3 3 4 5 5 6 6 6 7 6 7 7 8 7
6 5 4 3 3 4 3 3 3 3 2 2 3 3 3 3 3 3 3 3 3 3 3 3 3 3 4 3 2 2 3 3 3 3 3 3 4 4 4 5 6 6 6 7 6 7 7 7 7
6 5 4 4 4 3 3 3 3 2 2 3 3 3 3 3 3 3 3 3 3 2 2 2 3 3 3 2 3 3 3 3 3 3 3 3 4 4 5 5 6 6 6 6 7 7 7 7 7
5 5 4 4 4 4 4 3 3 3 2 3 3 3 2 3 3 3 3 3 3 3 3 2 2 2 2 2 3 3 3 3 3 3 3 3 3 4 5 5 6 6 6 6 7 7 7 8 9
6 5 5 5 5 5 5 4 3 3 3 3 3 3 3 3 3 4 3 3 3 3 3 2 2 2 2 3 3 3 3 3 3 4 4 4 5 5 5 6 6 6 7 7 7 7 8 8 8
7 6 6 5 6 6 5 5 5 4 4 4 3 3 3 3 3 3 3 3 3 3 3 2 2 2 3 3 3 3 3 3 4 5 5 5 6 6 6 7 7 7 7 7 7 8 9 9 9
8 7 6 6 5 5 6 6 6 5 4 4 4 3 3 3 3 3 3 3 3 3 2 2 3 3 3 3 4 4 4 4 5 5 6 6 7 7 7 8 8 8 8 9 9 9 9 10 10
9 8 7 7 7 7 7 6 6 6 6 5 5 4 4 4 3 4 4 3 3 3 2 3 3 3 3 4 5 5 5 5 6 7 7 8 8 8 9 9 9 9 10 10 10 10 10 10 10
10 9 9 8 8 8 8 8 7 7 7 7 6 6 5 5 5 5 4 4 3 3 3 3 4 4 4 5 5 5 6 6 7 7 8 9 9 10 10 11 11 11 11 11 12 12 12 11 12
11 11 10 10 9 9 9 9 9 9 9 8 8 7 6 6 5 5 5 4 4 4 5 5 5 5 5 6 6 6 7 8 8 9 9 10 11 11 11 11 11 11 12 12 12 13 13 13 13
12 12 12 11 11 11 11 11 10 10 10 10 9 8 8 7 6 7 6 5 5 6 6 6 6 6 7 7 7 8 8 9 9 10 10 11 12 12 12 12 12 12 12 12 13 13 14 13 13
13 12 12 13 13 13 13 12 11 11 11 11 10 9 8 8 7 7 7 7 7 7 7 7 7 8 9 9 9 9 9 10 11 11 11 12 13 13 13 13 13 13 13 13 13 14 14 14 14
14 14 13 13 13 14 14 13 11 12 12 12 11 10 9 9 7 7 7 7 8 8 9 9 9 10 10 10 10 10 11 11 12 12 12 13 14 13 13 14 14 14 14 14 14 14 14 15 15
14 14 14 14 14 13 14 13 12 12 12 13 12 11 11 10 9 8 8 8 9 9 10 10 10 11 11 11 11 11 12 12 12 12 13 13 14 14 14 14 15 15 15 15 15 15 15 15 15
14 14 14 14 15 14 14 14 12 12 13 13 12 12 12 11 11 11 10 10 9 10 10 11 11 12 12 12 12 13 13 13 13 13 13 13 14 14 15 15 16 16 16 16 16 15 15 15 15
15 15 15 15 15 14 13 14 13 13 13 13 13 13 13 13 12 12 11 11 11 12 12 12 11 12 13 13 14 14 13 14 14 14 15 15 15 15 15 16 16 16 16 16 16 16 16 16 16
15 15 16 16 16 15 14 14 13 13 14 14 13 13 14 14 14 13 13 12 12 13 13 13 12 13 13 14 14 14 14 15 15 16 16 16 15 14 15 15 15 16 15 16 16 16 17 17 17
16 16 17 17 16 15 15 15 13 14 14 14 14 14 15 14 14 14 14 14 14 14 14 14 14 14 14 14 15 15 15 15 16 16 16 15 15 15 15 15 15 16 15 15 15 16 16 17 17
17 17 17 18 17 16 16 15 14 14 14 14 15 15 14 14 14 14 14 14 14 14 15 14 15 15 15 15 16 16 16 15 16 15 15 15 15 16 16 16 16 16 16 16 16 16 17 17 18
17 18 18 18 18 18 16 15 14 13 14 14 14 14 14 14 14 14 14 15 15 15 15 15 16 15 15 15 16 16 16 15 15 15 15 15 15 16 16 17 17 17 17 17 17 18 18 18 18
18 18 19 20 20 19 18 14 13 14 14 14 14 14 14 15 15 15 15 15 15 16 15 15 15 15 16 16 17 16 16 15 15 16 16 17 17 17 18 17 17 17 18 17 18 18 18 19 19
19 19 19 20 20 21 20 16 14 15 15 15 15 15 15 16 16 16 16 16 16 16 16 17 17 17 17 17 17 16 16 16 16 17 17 18 18 18 18 18 18 18 18 19 19 19 20 20 20
Wind_Direction
304 293 280 277 278 263 262 262 260 251 253 246 246 252 257 291 314 307 304 292 284 274 267 264 262 260 259 265 270 275 276 272 270 262 252 249 252 254 254 253 259 253 251 250 247 245 238 241 246
305 300 284 275 275 275 263 260 253 247 242 236 241 243 256 295 314 317 314 298 287 277 271 267 263 259 259 264 269 272 273 273 266 261 257 254 252 252 255 254 256 251 251 253 252 250 241 241 244
295 294 289 283 280 279 262 256 248 243 238 234 231 239 260 289 302 307 316 295 288 282 272 271 270 265 260 261 267 270 271 270 262 260 262 261 253 249 250 251 251 253 251 256 256 250 246 247 248
301 297 287 282 289 279 264 241 226 228 238 239 234 237 260 292 294 300 314 301 301 294 281 280 280 276 265 264 264 266 273 269 261 264 268 267 260 249 249 255 255 256 258 259 261 254 249 248 249
292 290 291 281 289 278 258 232 231 212 231 235 243 245 253 271 300 305 308 300 299 295 292 292 288 284 275 266 260 269 272 272 271 273 269 265 260 255 252 260 261 262 263 264 265 256 250 250 249
288 287 287 292 296 278 254 219 241 236 226 235 249 251 260 284 300 300 297 291 292 297 310 309 287 279 276 279 281 272 272 279 280 276 271 264 259 256 253 263 265 265 263 264 266 268 262 256 256
276 282 279 286 279 267 258 239 225 219 221 235 252 270 281 284 289 293 293 289 290 295 302 309 292 288 284 285 282 275 287 288 281 281 279 275 268 257 256 263 267 270 266 264 267 267 270 261 258
277 280 284 284 275 262 257 262 268 249 231 237 261 278 281 280 283 289 285 282 280 279 283 298 295 282 268 269 276 281 290 288 289 290 287 281 272 262 259 264 268 270 266 264 267 268 269 268 260
287 284 280 277 265 251 252 252 241 235 239 254 272 284 285 281 281 278 274 271 268 268 280 290 281 268 266 264 264 290 308 302 295 288 285 276 271 265 262 265 269 269 267 268 268 268 265 264 258
287 279 271 267 258 246 242 238 227 223 240 270 279 283 287 286 282 270 267 265 267 264 269 279 273 265 261 254 246 275 293 294 285 277 274 268 267 264 265 265 267 267 269 268 268 264 261 263 265
283 279 271 260 252 245 239 239 234 231 241 258 267 274 286 289 285 277 268 261 257 255 269 279 270 255 251 250 258 268 274 278 279 274 270 267 267 270 270 271 267 266 271 272 273 270 266 269 271
278 274 261 250 246 244 242 247 239 240 255 265 269 274 292 297 289 286 274 262 266 262 267 270 266 257 268 280 278 275 279 284 286 285 284 282 284 283 280 280 278 276 278 276 275 274 271 269 269
268 262 253 245 240 240 242 240 240 243 251 263 274 292 302 298 296 291 280 274 276 269 257 246 251 282 284 287 287 282 280 286 289 294 296 290 287 292 288 285 283 283 281 279 276 274 272 271 270
264 257 251 243 242 239 237 242 242 248 258 264 271 283 296 294 297 296 283 276 272 262 247 246 267 284 287 283 287 291 288 286 287 287 288 286 288 292 290 285 282 283 280 277 278 276 272 272 270
264 259 252 246 246 243 243 245 251 250 255 259 267 273 284 289 291 294 284 276 269 265 256 261 272 282 296 298 298 301 306 303 300 296 291 286 285 287 288 288 286 283 281 278 280 281 277 274 272
262 257 252 250 252 248 247 245 248 251 253 254 261 267 271 274 276 279 277 273 267 265 263 264 268 275 284 289 293 299 303 304 300 295 292 289 287 285 285 287 288 285 282 280 281 281 280 278 276
260 256 254 252 253 251 248 249 250 255 256 252 253 260 266 270 272 271 271 269 261 256 258 262 265 272 275 284 291 294 298 299 296 295 295 294 292 290 290 289 288 286 284 280 279 276 277 277 275
259 256 254 253 251 251 249 248 248 251 254 253 253 253 258 266 265 268 266 263 253 253 257 263 271 273 276 284 290 293 296 296 296 296 297 297 296 294 292 292 292 290 287 282 278 275 274 274 273
262 258 253 253 252 251 250 250 247 248 251 254 255 254 254 260 262 260 259 258 255 257 260 267 274 278 281 285 290 295 298 300 299 297 298 298 297 294 292 292 293 293 289 286 281 277 273 271 272
259 259 258 255 254 254 254 253 248 247 249 251 253 254 254 255 256 251 249 253 259 261 264 268 273 277 282 285 291 296 297 299 298 297 297 299 298 295 292 289 289 290 289 287 283 279 275 271 269
259 257 257 257 256 255 255 254 251 250 251 252 254 255 255 256 255 251 250 257 262 264 266 269 276 280 283 285 288 291 294 297 296 295 296 299 300 298 295 292 291 290 288 286 284 282 278 273 269
260 259 258 257 256 255 256 256 250 251 252 252 252 255 255 252 249 247 253 258 263 264 265 270 274 279 285 286 289 290 292 293 294 295 296 298 301 301 299 296 292 289 289 287 284 282 279 274 269
260 259 257 259 258 255 255 258 253 253 255 255 254 254 254 252 250 248 254 259 265 265 264 270 274 278 282 285 287 290 291 292 294 296 296 297 298 299 298 297 295 292 290 288 286 283 281 276 272
261 259 258 258 258 255 256 260 258 258 257 257 257 255 253 253 252 252 257 259 263 268 269 270 275 280 283 285 286 288 290 292 295 296 295 296 297 297 296 296 296 293 290 287 285 283 281 278 274
258 259 259 259 259 260 260 261 262 261 259 257 258 256 256 255 254 255 259 261 265 270 273 272 274 280 283 287 289 290 290 292 294 294 295 296 297 297 296 295 296 296 292 289 285 282 280 278 276
257 257 260 262 263 264 261 261 259 262 263 260 259 257 257 255 255 257 257 261 266 271 275 275 274 278 282 287 290 291 292 293 294 294 294 296 296 295 295 295 296 295 293 291 289 286 281 280 277
254 255 259 260 262 265 263 262 261 263 264 264 262 259 257 254 253 255 257 261 265 270 274 277 277 277 280 284 287 290 291 291 291 292 293 294 294 294 295 295 294 292 292 291 289 286 284 284 281
255 253 255 259 262 263 264 264 264 262 260 260 261 257 257 255 254 254 257 260 264 268 273 275 278 280 282 282 283 287 288 289 289 292 294 296 298 297 295 294 293 292 291 290 289 286 284 283 281
255 255 258 261 263 263 262 264 264 260 258 258 257 256 258 257 256 255 258 262 267 270 273 276 278 282 283 284 287 286 284 284 288 292 293 294 297 298 296 295 293 292 290 289 290 290 288 285 283
256 258 259 261 263 263 263 261 261 260 261 259 257 258 257 255 256 258 261 264 267 271 276 277 278 281 283 287 289 286 283 284 286 289 292 293 295 297 297 295 293 292 291 291 291 289 287 286 286
Height
5854 5853 5854 5855 5855 5855 5855 5855 5855 5855 5855 5855 5855 5855 5856 5856 5857 5859 5857 5856 5856 5856 5856 5856 5856 5856 5857 5857 5857 5857 5857 5857 5857 5858 5858 5858 5859 5860 5860 5861 5861 5862 5863 5864 5864 5865 5866 5867 5867
5853 5853 5854 5855 5854 5854 5855 5854 5854 5854 5854 5854 5854 5855 5855 5856 5856 5856 5855 5855 5855 5855 5855 5855 5855 5856 5856 5856 5856 5856 5856 5856 5856 5856 5857 5857 5858 5859 5859 5860 5860 5861 5862 5862 5863 5863 5864 5865 5866
5853 5854 5855 5854 5853 5854 5854 5854 5854 5854 5854 5854 5854 5855 5855 5855 5855 5855 5855 5855 5855 5855 5855 5854 5855 5855 5855 5855 5855 5855 5855 5855 5855 5856 5856 5857 5857 5858 5858 5859 5859 5860 5860 5861 5862 5862 5863 5863 5864
5854 5854 5854 5854 5853 5854 5854 5854 5853 5853 5854 5854 5854 5854 5854 5855 5855 5855 5855 5854 5854 5854 5854 5854 5854 5854 5854 5854 5854 5854 5854 5854 5854 5855 5855 5856 5856 5857 5857 5858 5858 5859 5859 5860 5860 5861 5862 5862 5862
5853 5854 5854 5853 5853 5853 5853 5853 5853 5853 5853 5854 5854 5854 5854 5854 5854 5854 5854 5854 5854 5854 5853 5853 5853 5853 5853 5853 5853 5853 5853 5853 5853 5854 5854 5855 5855 5856 5856 5857 5857 5858 5858 5859 5859 5859 5860 5860 5860
5854 5854 5854 5853 5853 5853 5853 5853 5853 5853 5853 5853 5854 5853 5853 5854 5854 5854 5854 5854 5853 5853 5853 5853 5852 5852 5852 5853 5853 5853 5853 5853 5853 5853 5854 5854 5854 5855 5855 5856 5856 5857 5857 5857 5858 5858 5858 5859 5859
5854 5853 5853 5853 5853 5853 5853 5853 5853 5853 5853 5853 5853 5853 5853 5853 5853 5853 5853 5853 5853 5853 5853 5852 5852 5852 5852 5852 5852 5852 5852 5852 5852 5853 5853 5853 5853 5854 5854 5855 5855 5855 5855 5856 5856 5856 5857 5857 5857
5852 5853 5852 5852 5852 5852 5853 5852 5852 5852 5852 5853 5853 5853 5852 5852 5852 5852 5852 5852 5852 5852 5852 5852 5852 5852 5852 5851 5851 5851 5851 5851 5852 5852 5852 5852 5852 5853 5853 5853 5854 5854 5854 5854 5854 5855 5855 5855 5855
5851 5853 5851 5851 5851 5852 5852 5852 5852 5852 5852 5852 5852 5852 5852 5852 5852 5852 5852 5851 5851 5851 5851 5851 5851 5851 5851 5851 5851 5851 5851 5851 5851 5851 5851 5851 5851 5851 5852 5852 5852 5852 5852 5853 5853 5853 5853 5853 5854
5850 5851 5851 5851 5851 5851 5851 5851 5851 5851 5852 5852 5852 5851 5851 5851 5851 5851 5851 5851 5851 5850 5850 5850 5850 5850 5850 5850 5850 5850 5850 5850 5850 5850 5850 5850 5850 5850 5851 5851 5851 5851 5851 5851 5851 5851 5851 5852 5852
5849 5849 5850 5849 5850 5850 5850 5850 5850 5851 5851 5851 5851 5851 5850 5850 5850 5850 5850 5850 5850 5850 5850 5849 5849 5849 5849 5849 5849 5850 5850 5849 5849 5849 5849 5849 5849 5849 5849 5850 5850 5850 5850 5850 5850 5850 5850 5850 5851
5848 5848 5848 5849 5849 5849 5849 5850 5850 5850 5851 5850 5850 5850 5850 5849 5849 5849 5849 5849 5849 5849 5849 5849 5848 5848 5849 5849 5849 5849 5848 5848 5848 5848 5848 5848 5848 5848 5848 5848 5848 5848 5848 5848 5849 5849 5849 5849 5849
5847 5847 5848 5848 5848 5848 5849 5849 5849 5850 5850 5849 5849 5849 5849 5849 5848 5848 5848 5848 5848 5848 5848 5848 5848 5848 5848 5848 5848 5848 5847 5847 5847 5847 5847 5847 5847 5847 5847 5847 5847 5847 5847 5847 5847 5847 5847 5847 5847
5846 5846 5846 5847 5847 5847 5848 5848 5849 5849 5849 5849 5849 5849 5848 5848 5848 5848 5847 5847 5847 5847 5847 5847 5847 5847 5847 5847 5847 5847 5846 5846 5846 5846 5846 5846 5845 5845 5845 5845 5845 5845 5845 5845 5845 5845 5845 5845 5845
5844 5845 5845 5845 5846 5846 5847 5847 5847 5848 5848 5848 5848 5848 5848 5847 5847 5847 5846 5846 5846 5846 5846 5846 5846 5846 5846 5846 5846 5846 5845 5845 5845 5845 5844 5844 5844 5844 5843 5843 5843 5843 5842 5842 5842 5842 5842 5842 5843
5843 5843 5844 5845 5844 5845 5847 5846 5846 5846 5846 5846 5847 5846 5846 5846 5846 5846 5846 5845 5845 5845 5845 5845 5845 5845 5845 5845 5845 5844 5844 5844 5843 5843 5843 5842 5842 5842 5841 5841 5841 5840 5840 5840 5840 5840 5840 5840 5840
5841 5841 5842 5843 5843 5843 5844 5844 5845 5845 5845 5845 5845 5845 5845 5845 5845 5845 5844 5844 5844 5844 5844 5844 5844 5844 5844 5844 5843 5843 5842 5842 5842 5841 5840 5840 5840 5839 5839 5838 5838 5838 5837 5837 5837 5837 5837 5837 5837
5839 5839 5840 5840 5841 5841 5841 5842 5843 5843 5843 5843 5843 5843 5843 5844 5844 5843 5843 5843 5843 5843 5843 5843 5843 5843 5843 5842 5842 5841 5841 5840 5839 5839 5838 5837 5837 5836 5836 5835 5835 5835 5834 5834 5834 5834 5834 5833 5833
5836 5837 5837 5838 5838 5839 5839 5840 5841 5841 5841 5841 5841 5841 5842 5842 5842 5842 5842 5842 5842 5842 5842 5842 5842 5842 5841 5841 5840 5839 5839 5838 5837 5836 5835 5835 5834 5833 5833 5832 5832 5831 5831 5830 5830 5830 5830 5830 5830
5833 5834 5834 5835 5836 5836 5836 5837 5838 5838 5838 5839 5839 5839 5840 5840 5839 5840 5840 5840 5840 5840 5840 5840 5840 5840 5839 5839 5838 5837 5836 5835 5834 5833 5832 5832 5831 5830 5829 5829 5828 5828 5827 5827 5826 5826 5826 5826 5826
5830 5831 5831 5832 5833 5833 5834 5834 5835 5836 5835 5836 5837 5837 5837 5837 5837 5838 5838 5838 5838 5838 5838 5838 5837 5837 5837 5836 5835 5835 5834 5832 5831 5830 5829 5828 5827 5826 5825 5825 5824 5824 5823 5823 5822 5822 5822 5822 5822
5826 5827 5828 5828 5829 5829 5831 5831 5833 5833 5833 5833 5834 5834 5835 5835 5835 5835 5835 5835 5836 5836 5835 5835 5835 5835 5834 5834 5833 5832 5831 5830 5828 5827 5826 5825 5824 5823 5822 5821 5820 5820 5819 5818 5818 5818 5817 5817 5817
5823 5823 5824 5825 5825 5826 5827 5827 5830 5830 5830 5831 5831 5832 5832 5833 5833 5833 5833 5833 5833 5833 5833 5833 5833 5832 5831 5831 5830 5829 5828 5827 5825 5824 5823 5821 5820 5819 5818 5817 5816 5815 5815 5814 5814 5813 5813 5813 5813
5819 5820 5820 5821 5821 5823 5824 5824 5826 5826 5827 5827 5828 5828 5829 5829 5830 5830 5830 5830 5830 5830 5830 5830 5829 5829 5828 5827 5826 5825 5824 5823 5822 5821 5819 5818 5817 5815 5814 5813 5812 5811 5810 5809 5809 5808 5808 5808 5808
5816 5817 5817 5817 5818 5819 5820 5820 5823 5823 5823 5824 5825 5825 5825 5826 5826 5827 5827 5827 5827 5827 5827 5826 5826 5825 5825 5824 5823 5822 5820 5819 5818 5817 5815 5814 5813 5811 5810 5809 5808 5807 5806 5805 5804 5804 5803 5803 5803
5812 5813 5814 5814 5815 5816 5816 5816 5819 5819 5820 5820 5821 5821 5821 5822 5823 5823 5824 5824 5824 5824 5823 5823 5822 5822 5821 5820 5819 5818 5817 5815 5814 5813 5811 5810 5809 5807 5806 5805 5804 5803 5801 5801 5800 5799 5798 5798 5798
5808 5808 5810 5810 5810 5811 5812 5814 5815 5816 5816 5816 5817 5817 5817 5818 5819 5820 5820 5820 5820 5820 5820 5819 5819 5818 5817 5816 5815 5814 5813 5812 5810 5809 5808 5806 5805 5804 5802 5801 5799 5798 5797 5796 5795 5794 5794 5793 5793
5804 5805 5806 5806 5806 5806 5808 5809 5811 5812 5812 5812 5812 5813 5814 5814 5815 5816 5816 5816 5816 5816 5816 5815 5814 5813 5813 5812 5811 5810 5808 5807 5806 5805 5804 5802 5801 5799 5798 5797 5795 5794 5793 5792 5791 5790 5789 5788 5787
5800 5801 5801 5801 5802 5803 5804 5808 5807 5807 5808 5808 5809 5809 5810 5810 5811 5812 5812 5812 5812 5811 5811 5811 5810 5809 5808 5807 5806 5805 5804 5803 5802 5801 5800 5798 5797 5795 5793 5792 5790 5789 5788 5787 5785 5784 5783 5783 5782
5795 5796 5797 5798 5798 5798 5799 5804 5803 5803 5803 5804 5804 5805 5805 5806 5807 5807 5807 5807 5807 5807 5806 5806 5805 5804 5803 5802 5801 5800 5799 5798 5797 5796 5795 5793 5792 5790 5788 5787 5785 5784 5783 5781 5780 5779 5778 5777 5776